SBU203 TFFJ-TNCM

Flight info

Callsign SBU203
Flight time 0h 10m
Altitude 3000
Route PJM
Aircraft C208/L-SDFGR/C

Departure

Time 2026-05-03 21:39
Airport St. Jean Airport (TFFJ)

Arrival

Time 2026-05-03 21:50
Airport Princess Juliana International Airport (TNCM)
Time Latitude Longitude Altitude Speed Heading
2026-05-03 21:30 17.90376 -62.84618 54 ft 0 kts 18°
2026-05-03 21:36 17.90379 -62.84617 54 ft 2 kts 17°
2026-05-03 21:36 17.90397 -62.84627 54 ft 1 kts 302°
2026-05-03 21:36 17.90410 -62.84646 53 ft 4 kts 315°
2026-05-03 21:37 17.90433 -62.84642 51 ft 0 kts 88°
2026-05-03 21:37 17.90433 -62.84585 48 ft 29 kts 88°
2026-05-03 21:37 17.90447 -62.84217 36 ft 67 kts 88°
2026-05-03 21:38 17.90510 -62.83708 119 ft 72 kts 59°
2026-05-03 21:38 17.90979 -62.83464 222 ft 79 kts 13°
2026-05-03 21:38 17.91524 -62.83548 366 ft 81 kts 353°
2026-05-03 21:38 17.92058 -62.83766 476 ft 85 kts 347°
2026-05-03 21:39 17.92627 -62.84022 451 ft 94 kts 341°
2026-05-03 21:39 17.93160 -62.84483 523 ft 104 kts 312°
2026-05-03 21:39 17.93560 -62.85114 658 ft 105 kts 314°
2026-05-03 21:39 17.93993 -62.85701 811 ft 99 kts 311°
2026-05-03 21:40 17.94372 -62.86273 972 ft 92 kts 306°
2026-05-03 21:40 17.94715 -62.86855 1057 ft 98 kts 304°
2026-05-03 21:40 17.95041 -62.87463 1225 ft 93 kts 301°
2026-05-03 21:40 17.95330 -62.88066 1362 ft 91 kts 299°
2026-05-03 21:41 17.95602 -62.88712 1428 ft 99 kts 295°
2026-05-03 21:41 17.95868 -62.89388 1543 ft 105 kts 293°
2026-05-03 21:41 17.96097 -62.90103 1738 ft 102 kts 288°
2026-05-03 21:41 17.96286 -62.90814 1930 ft 100 kts 285°
2026-05-03 21:42 17.96434 -62.91520 2119 ft 99 kts 278°
2026-05-03 21:42 17.96551 -62.92223 2297 ft 96 kts 278°
2026-05-03 21:42 17.96628 -62.92912 2437 ft 97 kts 269°
2026-05-03 21:42 17.96930 -62.93565 2502 ft 107 kts 321°
2026-05-03 21:43 17.97485 -62.94160 2580 ft 121 kts 316°
2026-05-03 21:43 17.98084 -62.94819 2703 ft 128 kts 316°
2026-05-03 21:43 17.98701 -62.95492 2915 ft 126 kts 316°
2026-05-03 21:43 17.99305 -62.96163 3087 ft 128 kts 315°
2026-05-03 21:44 17.99935 -62.96893 3142 ft 140 kts 314°
2026-05-03 21:44 18.00558 -62.97671 3316 ft 138 kts 311°
2026-05-03 21:44 18.01136 -62.98458 3493 ft 137 kts 308°
2026-05-03 21:44 18.01640 -62.99381 3375 ft 159 kts 290°
2026-05-03 21:45 18.01923 -63.00490 3288 ft 153 kts 276°
2026-05-03 21:45 18.01996 -63.01606 3053 ft 155 kts 270°
2026-05-03 21:45 18.02088 -63.02738 2800 ft 155 kts 276°
2026-05-03 21:45 18.02244 -63.03821 2655 ft 144 kts 277°
2026-05-03 21:46 18.02451 -63.04842 2387 ft 144 kts 281°
2026-05-03 21:46 18.02594 -63.05894 2059 ft 147 kts 273°
2026-05-03 21:46 18.02612 -63.06941 1677 ft 142 kts 270°
2026-05-03 21:46 18.02561 -63.07914 1474 ft 126 kts 269°
2026-05-03 21:47 18.02442 -63.08858 1301 ft 129 kts 254°
2026-05-03 21:47 18.02224 -63.09781 1149 ft 131 kts 252°
2026-05-03 21:47 18.02020 -63.10676 1075 ft 126 kts 257°
2026-05-03 21:47 18.01867 -63.11565 1000 ft 118 kts 258°
2026-05-03 21:48 18.01704 -63.12389 924 ft 113 kts 255°
2026-05-03 21:48 18.01850 -63.13147 889 ft 102 kts 319°
2026-05-03 21:48 18.02445 -63.13498 736 ft 99 kts 343°
2026-05-03 21:48 18.03063 -63.13656 641 ft 82 kts 16°
2026-05-03 21:49 18.03520 -63.13466 477 ft 72 kts 46°
2026-05-03 21:49 18.03789 -63.13030 323 ft 71 kts 78°
2026-05-03 21:49 18.03857 -63.12556 172 ft 60 kts 85°
2026-05-03 21:49 18.03921 -63.12127 72 ft 58 kts 79°
2026-05-03 21:50 18.03978 -63.11719 20 ft 54 kts 81°
2026-05-03 21:50 18.04020 -63.11399 19 ft 40 kts 82°
2026-05-03 21:50 18.04087 -63.11289 19 ft 13 kts 352°
2026-05-03 21:50 18.04122 -63.11297 19 ft 1 kts 345°
2026-05-03 21:51 18.04131 -63.11298 19 ft 3 kts 354°
2026-05-03 21:51 18.04185 -63.11303 20 ft 12 kts
2026-05-03 21:51 18.04218 -63.11250 20 ft 11 kts 88°
2026-05-03 21:51 18.04195 -63.11209 20 ft 5 kts 176°
2026-05-03 21:52 18.04181 -63.11208 20 ft 0 kts 170°